FW9002 Weather Reports


time (UTC)temp
C
wind
direction
speed
KPH
gust
KPH
rain 1hr
cm
rain 24hr
cm
rain mn
cm
humidity
%
barometer
mb
20260507054107 15 345 0.0 0.0 0.00 0.00 0.00 42 1014.0
20260507053605 15 345 0.0 0.0 0.00 0.00 0.00 40 1013.8
20260507053104 15 345 0.0 0.0 0.00 0.00 0.00 42 1013.6
20260507052601 15 345 0.0 0.0 0.00 0.00 0.00 38 1013.8
20260507052058 16 345 0.0 0.0 0.00 0.00 0.00 40 1013.6
20260507051555 16 345 0.0 0.0 0.00 0.00 0.00 37 1013.6
20260507051052 16 345 0.0 0.0 0.00 0.00 0.00 36 1013.8
20260507050549 16 345 0.0 0.0 0.00 0.00 0.00 34 1013.6
20260507050045 17 345 0.0 0.0 0.00 0.00 0.00 34 1013.5
20260507045542 17 345 0.0 0.0 0.00 0.00 0.00 33 1013.2
20260507045039 18 345 0.0 0.0 0.00 0.00 0.00 32 1013.3
20260507044535 18 345 0.0 0.0 0.00 0.00 0.00 30 1013.6
20260507044033 18 345 0.0 0.0 0.00 0.00 0.00 30 1013.5
20260507043528 18 345 0.0 0.0 0.00 0.00 0.00 27 1013.3
20260507043026 19 345 0.0 0.0 0.00 0.00 0.00 27 1013.3
20260507042522 20 345 0.0 0.0 0.00 0.00 0.00 26 1013.3
20260507042017 20 345 0.0 0.0 0.00 0.00 0.00 25 1013.4
20260507041515 20 345 1.6 0.0 0.00 0.00 0.00 24 1013.1
20260507041011 21 317 0.0 0.0 0.00 0.00 0.00 24 1013.3
20260507040507 21 315 1.6 0.0 0.00 0.00 0.00 23 1013.1
20260507040004 21 299 0.0 0.0 0.00 0.00 0.00 23 1013.2
20260507035500 21 305 1.6 1.6 0.00 0.00 0.00 22 1013.0
20260507034956 21 280 3.2 4.8 0.00 0.00 0.00 22 1013.1
20260507034453 21 339 3.2 3.2 0.00 0.00 0.00 22 1013.0
20260507033951 21 313 0.0 0.0 0.00 0.00 0.00 22 1012.8
20260507033449 21 303 4.8 9.7 0.00 0.00 0.00 21 1012.8
20260507032946 21 318 0.0 1.6 0.00 0.00 0.00 21 1012.8
20260507032443 22 271 1.6 1.6 0.00 0.00 0.00 21 1012.7
20260507031939 22 318 0.0 0.0 0.00 0.00 0.00 21 1012.8
20260507031435 22 288 3.2 3.2 0.00 0.00 0.00 20 1012.8
20260507030932 22 317 3.2 3.2 0.00 0.00 0.00 21 1012.9
20260507030430 22 302 1.6 1.6 0.00 0.00 0.00 21 1012.7
20260507025927 22 301 1.6 3.2 0.00 0.00 0.00 21 1012.7
20260507025424 22 307 3.2 3.2 0.00 0.00 0.00 20 1012.5
20260507024922 22 291 4.8 4.8 0.00 0.00 0.00 20 1012.2
20260507024419 22 298 0.0 0.0 0.00 0.00 0.00 20 1012.4
20260507023914 22 295 1.6 1.6 0.00 0.00 0.00 20 1012.4
20260507023412 22 328 1.6 1.6 0.00 0.00 0.00 20 1012.1
20260507022909 23 302 6.4 9.7 0.00 0.00 0.00 19 1012.5
20260507022405 23 260 3.2 4.8 0.00 0.00 0.00 19 1012.5
20260507021901 23 313 4.8 4.8 0.00 0.00 0.00 20 1012.2
20260507021356 23 298 3.2 3.2 0.00 0.00 0.00 20 1012.1
20260507020855 23 301 1.6 1.6 0.00 0.00 0.00 20 1012.4
20260507020351 23 301 4.8 8.0 0.00 0.00 0.00 19 1012.4
20260507015848 23 309 3.2 3.2 0.00 0.00 0.00 20 1012.0
20260507015346 24 292 3.2 3.2 0.00 0.00 0.00 20 1012.1
20260507014843 25 280 3.2 3.2 0.00 0.00 0.00 19 1012.1
20260507014339 25 300 8.0 11.3 0.00 0.00 0.00 19 1011.9
20260507013836 25 321 3.2 3.2 0.00 0.00 0.00 19 1012.1
20260507013333 25 316 3.2 3.2 0.00 0.00 0.00 19 1012.5
20260507012831 26 341 0.0 0.0 0.00 0.00 0.00 19 1012.1
20260507012326 26 319 1.6 1.6 0.00 0.00 0.00 19 1012.0
20260507011823 26 283 3.2 3.2 0.00 0.00 0.00 19 1012.1
20260507011320 26 308 4.8 4.8 0.00 0.00 0.00 19 1011.9
20260507010820 26 302 1.6 3.2 0.00 0.00 0.00 19 1012.0
20260507010315 26 23 1.6 1.6 0.00 0.00 0.00 19 1012.1
20260507005813 26 8 1.6 1.6 0.00 0.00 0.00 19 1012.0
20260507005310 26 315 1.6 1.6 0.00 0.00 0.00 19 1012.1
20260507004807 26 16 4.8 8.0 0.00 0.00 0.00 19 1012.0
20260507004304 26 303 4.8 8.0 0.00 0.00 0.00 18 1012.0
20260507003801 27 309 4.8 4.8 0.00 0.00 0.00 19 1012.0
20260507003256 26 303 4.8 8.0 0.00 0.00 0.00 19 1012.0
20260507002752 26 352 4.8 8.0 0.00 0.00 0.00 18 1012.0
20260507002248 26 26 4.8 4.8 0.00 0.00 0.00 19 1011.8
20260507001745 27 10 3.2 3.2 0.00 0.00 0.00 18 1012.1
20260507001242 27 2 4.8 4.8 0.00 0.00 0.00 18 1011.6
20260507000738 27 286 4.8 4.8 0.00 0.00 0.00 18 1012.1
20260507000234 27 323 3.2 3.2 0.00 0.00 0.00 19 1011.9
20260506235731 27 352 8.0 12.9 0.00 0.00 0.00 18 1012.0
20260506235226 27 292 3.2 8.0 0.00 0.00 0.00 19 1012.1
20260506234724 27 355 4.8 4.8 0.00 0.00 0.00 18 1011.9
20260506234221 27 22 1.6 1.6 0.00 0.00 0.00 18 1011.9
20260506233719 27 354 6.4 9.7 0.00 0.00 0.00 18 1012.2
20260506233215 26 3 8.0 11.3 0.00 0.00 0.00 18 1011.9
20260506232711 27 311 3.2 3.2 0.00 0.00 0.00 19 1012.2
20260506232206 27 2 3.2 4.8 0.00 0.00 0.00 19 1012.1
20260506231704 27 281 1.6 1.6 0.00 0.00 0.00 18 1012.2
20260506231203 27 287 1.6 1.6 0.00 0.00 0.00 20 1012.1
20260506230658 27 318 6.4 8.0 0.00 0.00 0.00 18 1012.2
20260506230155 27 298 4.8 8.0 0.00 0.00 0.00 18 1012.2
20260506225652 27 258 6.4 9.7 0.00 0.00 0.00 19 1012.4
20260506225149 27 253 3.2 3.2 0.00 0.00 0.00 19 1012.2
20260506224645 27 286 4.8 4.8 0.00 0.00 0.00 19 1012.2
20260506224142 26 277 3.2 4.8 0.00 0.00 0.00 21 1012.5
20260506223639 26 303 4.8 3.2 0.00 0.00 0.00 20 1012.5
20260506223134 26 266 4.8 8.0 0.00 0.00 0.00 21 1012.2
20260506222631 26 288 8.0 9.7 0.00 0.00 0.00 21 1012.5
20260506222128 26 302 4.8 4.8 0.00 0.00 0.00 20 1012.5
20260506221626 27 237 1.6 1.6 0.00 0.00 0.00 20 1012.6
20260506221123 27 299 6.4 9.7 0.00 0.00 0.00 20 1012.8
20260506220620 27 307 1.6 3.2 0.00 0.00 0.00 20 1012.6
20260506220115 27 214 4.8 4.8 0.00 0.00 0.00 19 1012.8
20260506215612 27 213 1.6 1.6 0.00 0.00 0.00 20 1012.8
20260506215107 27 319 3.2 3.2 0.00 0.00 0.00 20 1012.9
20260506214605 27 256 6.4 8.0 0.00 0.00 0.00 20 1012.7
20260506214102 27 355 1.6 1.6 0.00 0.00 0.00 20 1013.0
20260506213600 26 18 0.0 0.0 0.00 0.00 0.00 21 1013.3
20260506213057 26 352 3.2 4.8 0.00 0.00 0.00 21 1013.2
20260506212554 26 301 3.2 3.2 0.00 0.00 0.00 22 1013.4
20260506212048 26 234 6.4 9.7 0.00 0.00 0.00 21 1013.2
20260506211545 26 250 11.3 12.9 0.00 0.00 0.00 21 1013.5
20260506211042 25 292 3.2 3.2 0.00 0.00 0.00 23 1013.4
20260506210538 26 236 6.4 8.0 0.00 0.00 0.00 22 1013.5
20260506210035 26 290 6.4 8.0 0.00 0.00 0.00 23 1013.5
20260506205532 25 105 1.6 3.2 0.00 0.00 0.00 22 1013.6
20260506205027 25 189 1.6 1.6 0.00 0.00 0.00 23 1013.5
20260506204525 25 336 3.2 3.2 0.00 0.00 0.00 23 1013.4
20260506204022 25 297 4.8 8.0 0.00 0.00 0.00 23 1013.6
20260506203520 25 287 4.8 4.8 0.00 0.00 0.00 24 1013.9
20260506203016 26 324 3.2 3.2 0.00 0.00 0.00 25 1013.8
20260506202514 25 275 6.4 9.7 0.00 0.00 0.00 24 1014.0
20260506202010 25 281 3.2 8.0 0.00 0.00 0.00 25 1014.0
20260506201508 25 273 1.6 1.6 0.00 0.00 0.00 25 1014.0
20260506201004 25 303 1.6 3.2 0.00 0.00 0.00 26 1014.0
20260506200500 25 258 3.2 3.2 0.00 0.00 0.00 25 1014.1
20260506195956 25 216 6.4 8.0 0.00 0.00 0.00 25 1014.1
20260506195455 25 293 4.8 4.8 0.00 0.00 0.00 26 1014.1
20260506194950 24 184 1.6 3.2 0.00 0.00 0.00 27 1014.3
20260506194448 24 327 1.6 1.6 0.00 0.00 0.00 27 1014.5
20260506193944 24 357 9.7 14.5 0.00 0.00 0.00 27 1014.5
20260506193442 24 306 6.4 4.8 0.00 0.00 0.00 28 1014.4
20260506192938 24 6 0.0 1.6 0.00 0.00 0.00 28 1014.5
20260506192436 24 270 1.6 1.6 0.00 0.00 0.00 27 1014.5
20260506191932 24 331 4.8 8.0 0.00 0.00 0.00 28 1014.8
20260506191429 24 307 6.4 9.7 0.00 0.00 0.00 28 1014.7
20260506190925 23 305 8.0 9.7 0.00 0.00 0.00 28 1014.9
20260506190422 23 228 1.6 1.6 0.00 0.00 0.00 29 1014.8
20260506185919 24 262 4.8 4.8 0.00 0.00 0.00 27 1014.9
20260506185416 23 6 4.8 4.8 0.00 0.00 0.00 28 1014.9
20260506184913 23 302 1.6 1.6 0.00 0.00 0.00 29 1015.2
20260506184410 23 339 3.2 3.2 0.00 0.00 0.00 30 1015.0
20260506183908 23 225 4.8 4.8 0.00 0.00 0.00 28 1014.8
20260506183402 24 250 3.2 3.2 0.00 0.00 0.00 26 1015.0
20260506182900 23 210 1.6 1.6 0.00 0.00 0.00 28 1015.2
20260506182357 22 122 6.4 8.0 0.00 0.00 0.00 28 1015.3
20260506181854 22 122 4.8 4.8 0.00 0.00 0.00 29 1015.4
20260506181352 22 263 1.6 3.2 0.00 0.00 0.00 30 1015.7
20260506180849 22 168 1.6 3.2 0.00 0.00 0.00 28 1015.4
20260506180345 22 5 4.8 4.8 0.00 0.00 0.00 30 1015.7
20260506175842 22 296 4.8 4.8 0.00 0.00 0.00 28 1015.4
20260506175338 23 304 3.2 3.2 0.00 0.00 0.00 27 1015.5
20260506174836 23 139 4.8 8.0 0.00 0.00 0.00 28 1015.3
20260506174333 22 105 0.0 1.6 0.00 0.00 0.00 30 1015.4
20260506173830 22 303 4.8 4.8 0.00 0.00 0.00 29 1015.7
20260506173327 22 312 6.4 9.7 0.00 0.00 0.00 31 1015.5
20260506172824 22 333 4.8 8.0 0.00 0.00 0.00 32 1015.6
20260506172321 21 85 1.6 1.6 0.00 0.00 0.00 34 1015.4
20260506171818 21 200 0.0 0.0 0.00 0.00 0.00 34 1015.5
20260506171315 21 235 1.6 1.6 0.00 0.00 0.00 34 1015.5
20260506170813 21 270 3.2 1.6 0.00 0.00 0.00 34 1015.3
20260506170308 21 30 3.2 3.2 0.00 0.00 0.00 36 1015.4
20260506165808 21 6 1.6 1.6 0.00 0.00 0.00 36 1015.5
20260506165306 21 0 1.6 1.6 0.00 0.00 0.00 37 1015.3
20260506164802 21 8 1.6 1.6 0.00 0.00 0.00 38 1015.6
20260506164258 21 7 1.6 3.2 0.00 0.00 0.00 38 1015.5
20260506163755 20 70 1.6 1.6 0.00 0.00 0.00 37 1015.3
20260506163250 20 297 4.8 8.0 0.00 0.00 0.00 37 1015.4
20260506162746 20 345 3.2 3.2 0.00 0.00 0.00 37 1015.5
20260506162244 20 7 4.8 3.2 0.00 0.00 0.00 38 1015.2
20260506161741 20 21 0.0 1.6 0.00 0.00 0.00 41 1015.5
20260506161239 20 307 4.8 4.8 0.00 0.00 0.00 39 1015.3
20260506160736 20 31 0.0 1.6 0.00 0.00 0.00 39 1015.4
20260506160232 20 357 1.6 1.6 0.00 0.00 0.00 41 1015.5
20260506155731 19 17 3.2 3.2 0.00 0.00 0.00 41 1015.4
20260506155227 19 10 0.0 0.0 0.00 0.00 0.00 40 1015.3
20260506153335 18 182 1.6 3.2 0.00 0.00 0.00 42 1015.5
20260506152832 17 250 0.0 0.0 0.00 0.00 0.00 44 1015.3
20260506152329 18 218 4.8 3.2 0.00 0.00 0.00 42 1015.3
20260506151828 19 129 4.8 4.8 0.00 0.00 0.00 41 1015.3
20260506151324 18 114 1.6 1.6 0.00 0.00 0.00 41 1015.4
20260506150821 18 103 0.0 0.0 0.00 0.00 0.00 43 1015.3
20260506150318 18 127 3.2 3.2 0.00 0.00 0.00 43 1015.3
20260506145815 18 101 1.6 1.6 0.00 0.00 0.00 43 1015.3
20260506145311 17 165 1.6 3.2 0.00 0.00 0.00 45 1015.2
20260506144809 17 159 0.0 0.0 0.00 0.00 0.00 46 1015.3
20260506144305 16 159 1.6 1.6 0.00 0.00 0.00 46 1015.4
20260506143803 16 177 1.6 1.6 0.00 0.00 0.00 46 1015.4
20260506143300 16 183 1.6 1.6 0.00 0.00 0.00 46 1015.4
20260506142759 16 184 4.8 3.2 0.00 0.00 0.00 47 1015.3
20260506142256 16 151 1.6 1.6 0.00 0.00 0.00 47 1015.5
20260506141754 16 189 3.2 1.6 0.00 0.00 0.00 47 1015.3
20260506141252 16 116 0.0 0.0 0.00 0.00 0.00 48 1015.2
20260506140750 17 115 1.6 1.6 0.00 0.00 0.00 48 1015.5
20260506140246 17 99 1.6 1.6 0.00 0.00 0.00 47 1015.4
20260506135743 16 91 0.0 0.0 0.00 0.00 0.00 53 1015.3
20260506135239 16 91 0.0 0.0 0.00 0.00 0.00 59 1014.9
20260506134736 15 91 0.0 0.0 0.00 0.00 0.00 60 1015.2
20260506134233 15 91 0.0 0.0 0.00 0.00 0.00 63 1015.2
20260506133730 14 89 0.0 0.0 0.00 0.00 0.00 63 1015.0
20260506133226 13 93 1.6 1.6 0.00 0.00 0.00 65 1014.9
20260506132723 13 92 0.0 0.0 0.00 0.00 0.00 67 1015.0
20260506132221 13 83 0.0 0.0 0.00 0.00 0.00 68 1015.2
20260506131719 12 83 0.0 0.0 0.00 0.00 0.00 70 1015.0
20260506131214 12 83 0.0 0.0 0.00 0.00 0.00 73 1014.9
20260506130711 11 83 0.0 0.0 0.00 0.00 0.00 76 1014.8
20260506130208 10 83 0.0 0.0 0.00 0.00 0.00 78 1015.0
20260506125707 10 83 0.0 0.0 0.00 0.00 0.00 79 1014.8
20260506125204 10 83 1.6 1.6 0.00 0.00 0.00 80 1014.6
20260506124702 10 82 0.0 0.0 0.00 0.00 0.00 80 1014.8
20260506124200 10 83 0.0 0.0 0.00 0.00 0.00 80 1014.6
20260506123657 10 83 0.0 0.0 0.00 0.00 0.00 80 1014.8
20260506123155 10 83 0.0 0.0 0.00 0.00 0.00 81 1014.7
20260506122652 10 83 0.0 0.0 0.00 0.00 0.00 81 1014.5
20260506122150 10 83 0.0 0.0 0.00 0.00 0.00 79 1014.4
20260506121647 10 83 0.0 0.0 0.00 0.00 0.00 78 1014.5
20260506121143 10 83 0.0 0.0 0.00 0.00 0.00 76 1014.5
20260506120641 10 83 0.0 0.0 0.00 0.00 0.00 77 1014.3
20260506120138 10 82 0.0 0.0 0.00 0.00 0.00 76 1014.5
20260506115637 11 83 0.0 0.0 0.00 0.00 0.00 75 1014.3
20260506115134 11 83 0.0 0.0 0.00 0.00 0.00 74 1014.3
20260506114631 11 82 0.0 0.0 0.00 0.00 0.00 74 1014.3
20260506114129 11 82 0.0 0.0 0.00 0.00 0.00 74 1014.2
20260506113628 11 83 0.0 0.0 0.00 0.00 0.00 75 1014.1
20260506113125 11 83 0.0 0.0 0.00 0.00 0.00 74 1014.0
20260506112621 11 82 0.0 0.0 0.00 0.00 0.00 74 1014.1
20260506112118 11 82 0.0 0.0 0.00 0.00 0.00 72 1014.2
20260506111616 11 82 0.0 0.0 0.00 0.00 0.00 70 1013.9
20260506111114 11 82 0.0 0.0 0.00 0.00 0.00 70 1014.1
20260506110611 11 82 0.0 0.0 0.00 0.00 0.00 69 1014.0
20260506110108 11 82 0.0 0.0 0.00 0.00 0.00 68 1014.1
20260506105604 11 82 0.0 0.0 0.00 0.00 0.00 67 1014.2
20260506105101 11 82 0.0 0.0 0.00 0.00 0.00 66 1013.8
20260506104600 11 84 1.6 3.2 0.00 0.00 0.00 67 1014.0
20260506104057 11 85 0.0 0.0 0.00 0.00 0.00 67 1014.0
20260506103554 11 85 0.0 0.0 0.00 0.00 0.00 65 1013.8
20260506103050 11 85 0.0 0.0 0.00 0.00 0.00 65 1013.8
20260506102549 12 85 0.0 0.0 0.00 0.00 0.00 63 1013.6
20260506102046 12 85 0.0 0.0 0.00 0.00 0.00 62 1013.5
20260506101543 12 85 0.0 0.0 0.00 0.00 0.00 60 1013.6
20260506101040 12 84 0.0 0.0 0.00 0.00 0.00 59 1013.5
20260506100538 13 84 0.0 0.0 0.00 0.00 0.00 57 1013.5
20260506100036 12 82 1.6 1.6 0.00 0.00 0.00 56 1013.5
20260506095534 13 317 1.6 1.6 0.00 0.00 0.00 57 1013.4
20260506095030 13 316 0.0 0.0 0.00 0.00 0.00 55 1013.6
20260506094528 13 316 0.0 0.0 0.00 0.00 0.00 53 1013.4
20260506094026 13 316 0.0 0.0 0.00 0.00 0.00 52 1013.3
20260506093524 13 316 0.0 0.0 0.00 0.00 0.00 51 1013.3
20260506093021 13 316 0.0 0.0 0.00 0.00 0.00 50 1013.1
20260506092519 13 316 1.6 1.6 0.00 0.00 0.00 50 1013.2
20260506092015 13 323 1.6 1.6 0.00 0.00 0.00 50 1013.2
20260506091514 13 280 3.2 4.8 0.00 0.00 0.00 52 1013.2
20260506091011 13 330 0.0 0.0 0.00 0.00 0.00 55 1013.2
20260506090509 13 332 0.0 0.0 0.00 0.00 0.00 54 1013.1
20260506090004 13 332 0.0 0.0 0.00 0.00 0.00 53 1013.2
20260506085501 14 307 0.0 0.0 0.00 0.00 0.00 53 1013.3
20260506084958 15 317 1.6 0.0 0.00 0.00 0.00 52 1013.2
20260506084455 15 357 1.6 1.6 0.00 0.00 0.00 51 1013.3
20260506083951 15 355 1.6 3.2 0.00 0.00 0.00 50 1013.1
20260506083448 15 277 1.6 3.2 0.00 0.00 0.00 50 1013.3
20260506082945 15 235 3.2 3.2 0.00 0.00 0.00 52 1013.3
20260506082442 15 241 1.6 1.6 0.00 0.00 0.00 55 1013.2
20260506081938 15 251 1.6 1.6 0.00 0.00 0.00 55 1013.2
20260506081437 15 232 1.6 1.6 0.00 0.00 0.00 56 1013.2
20260506080933 15 232 1.6 1.6 0.00 0.00 0.00 57 1013.3
20260506080430 15 231 1.6 3.2 0.00 0.00 0.00 57 1013.5
20260506073414 15 272 0.0 0.0 0.00 0.00 0.00 58 1013.4
20260506072912 15 272 0.0 0.0 0.00 0.00 0.00 58 1013.2
20260506072409 15 265 0.0 0.0 0.00 0.00 0.00 57 1013.4
20260506071906 15 257 0.0 0.0 0.00 0.00 0.00 57 1013.5
20260506071404 15 271 0.0 0.0 0.00 0.00 0.00 57 1013.3
20260506070901 16 293 0.0 0.0 0.00 0.00 0.00 56 1013.2
20260506070358 16 291 0.0 0.0 0.00 0.00 0.00 55 1013.3
20260506062335 16 313 1.6 1.6 0.00 0.48 0.48 44 1013.0
20260506061831 17 300 4.8 4.8 0.00 0.48 0.48 43 1013.1
20260506061328 17 292 0.0 0.0 0.00 0.48 0.48 42 1013.1
20260506060826 17 308 1.6 1.6 0.00 0.48 0.48 41 1013.3
20260506060324 17 306 4.8 4.8 0.00 0.48 0.48 41 1013.1